Location: Miami, Florida
(25.6830°N, 80.1700°W)
Time: 16:58:10
(UTC-04:00)

N. Korean satellite - Pass Details

Date: 16 November 2017
Orbit: 460 x 514 km, 97.2° (Epoch: 21 November)

Event Time Altitude Azimuth Distance (km) Brightness Sun altitude
Rises 18:55:42 0° 143° (SE) 2,470 10.0 -6.0°
Reaches altitude 10° 18:58:00 10° 129° (SE) 1,602 8.9 -6.5°
Maximum altitude 19:00:47 23° 74° (ENE) 1,023 7.6 -7.1°
Drops below altitude 10° 19:03:35 10° 21° (NNE) 1,621 8.9 -7.7°
Sets 19:05:55 0° 6° (N) 2,508 9.9 -8.2°
